星链-37727(STARLINK-37727)

导读

目前公开可查询的信息中暂未收录STARLINK-37727(NORAD编号69481)的专项公开数据。星链卫星是美国太空探索技术公司(SpaceX)部署的低轨通信星座卫星,主要功能是为全球提供高速低延迟的宽带互联网服务,该批次卫星一般由猎鹰9号火箭批量发射,入轨后需完成轨道抬升、功能测试后接入星座组网,常规运行轨道高度约550公里,轨道周期约95分钟,目前SpaceX已累计发射超万颗星链卫星,在轨运营规模居全球低轨星座首位。

基本信息
目录编号:
69481
目录名称:
STARLINK-37727
国际标识:
2026-131D
轨道中心:
EARTH
卫星名称:
星链-37727
卫星全名:
星链-37727(STARLINK-37727)
卫星状态:
在轨 (已飞行85 天)
发射日期:
2026-06-11 UTC
国别 :
美国 (US)
星等 :
--
轨道信息
数据来源 国际轨道数据
星历时间: 2026-09-04T01:25:48+0800
10小时前
查看轨道信息
半长轴: 6843.682km
偏心率: 0.0001372
轨道倾角: 97.284°
近地点辐角 112.408°
升交点赤经 267.780°
平近点角 247.731°
近地点: 464.606km
远地点: 466.484km
周期: 93.906分钟
每日圈数: 15.334444
详细信息
固有亮度:
5
最大亮度:
2.5
卫星平台:
Starlink V1.0
覆盖范围:
全球
运营商:
太空探索技术公司
运营商所在国:
美国
制造商(研发单位):
太空探索技术公司
制造商所在国:
美国
使用方式:
暂无
卫星简介
Starlink 计划是 SpaceX 推出的全球卫星互联网项目,通过发射低轨道卫星,为全球尤其是偏远地区提供高速、低延迟的互联网服务。自 2019 年起,Starlink 已部署数千颗卫星,旨在缩小全球数字鸿沟,推动互联网普及。该项目还为军事、航空等行业提供通信支持,带来广泛经济效益。
2D轨道图
3D轨道图
轨道高度分析图
轨道倾角分析图
轨道综合分析图
查看轨道综合分析图
交会数据列表
事件ID 空间交会对象 最接近时刻(TCA) 交会距离 交会风险概率(CRP) 交会风险指数(CRI) 操作
CDM_260904-023605-256506-948123
2026-09-04T
02:36:24+0000
2.263 km
极远距离
2.012426E-6 低风险 0.41
CDM_260905-034006-418406-948121
2026-09-05T
03:40:01+0000
2.188 km
极远距离
1.760044E-6 低风险 0.4
CDM_260904-063105-256506-948121
2026-09-04T
06:31:12+0000
2.899 km
极远距离
1.318941E-6 低风险 0.37
CDM_260905-042605-209606-948121
2026-09-05T
04:26:41+0000
2.625 km
极远距离
1.275305E-6 低风险 0.37
CDM_260904-071706-351106-948121
2026-09-04T
07:17:56+0000
2.959 km
极远距离
1.271491E-6 低风险 0.37